Retour au catalogue

FENGYUN 1C DEB

ActifSSO
NORAD 32134·DEBRIS·🇨🇳 China

Lancé May 10, 1999 depuis Taiyuan Satellite Launch Center

Loading…

Prochains Passages (prochaines 24 heures)

TLE

FraisSource: Space-Track

Époque: Sep 14, 2026, 11:54 UTC

1 32134U 99025CSC 26257.49610336  .00000734  00000-0  25023-3 0  9991
2 32134  98.6010 259.1503 0257009 182.5276 330.3795 14.22486704990666

Suivez FENGYUN 1C DEB en temps réel avec AllMySat

Download on the App Store